Lid_Strength_Index
17 16 16 15 15 15 15 15 14 14 14 13 13 12 12 12 12 12 11 11 10 9
17 16 15 15 15 15 15 14 14 14 14 13 13 13 12 13 14 13 12 11 10 9
18 15 15 15 16 16 15 15 15 15 14 14 13 14 14 14 13 13 13 12 10 10
18 15 16 16 16 16 15 15 15 15 14 14 14 14 14 14 14 14 13 12 11 11
18 16 16 16 16 16 16 15 15 15 15 15 14 15 16 16 14 14 14 14 12 11
21 21 17 17 16 16 16 16 15 15 15 15 15 15 14 15 15 15 14 14 13 12
22 22 17 17 16 16 16 16 15 15 15 15 15 14 14 14 20 19 18 15 14 13
23 23 19 17 16 16 15 15 15 17 19 18 19 18 18 19 22 20 20 18 15 14
25 24 22 21 21 21 21 21 22 21 22 21 18 14 13 16 22 22 20 19 18 14
21 20 20 19 20 20 22 22 22 22 22 20 21 14 13 14 19 21 20 19 17 16
19 19 18 19 19 20 21 20 20 19 18 18 17 14 13 13 17 17 17 17 17 18
18 18 18 18 19 20 20 19 19 18 18 18 17 14 14 13 16 17 17 16 16 16
17 18 18 18 18 18 18 17 17 17 18 18 17 15 14 14 15 17 17 17 17 15
17 18 17 18 18 19 19 19 20 19 19 19 18 17 14 14 15 16 17 17 17 17